Hourly Weather Dzhalalabad

Today, 6 July, Monday

Time Temperature Precipitation Wind Pressure Humidity
00:00 +23°C° 0 mm 2 mps 688 mmHg 29%
01:00 +23°C° 0 mm 2 mps 688 mmHg 31%
02:00 +21°C° 0 mm 2 mps 687 mmHg 32%
03:00 +21°C° 0 mm 2 mps 688 mmHg 32%
04:00 +21°C° 0 mm 2 mps 688 mmHg 33%
05:00 +20°C° 0 mm 2 mps 688 mmHg 35%
06:00 +23°C° 0 mm 2 mps 688 mmHg 31%
07:00 +25°C° 0 mm 2 mps 689 mmHg 28%
08:00 +27°C° 0 mm 3 mps 690 mmHg 25%
09:00 +28°C° 0 mm 3 mps 690 mmHg 23%
10:00 +30°C° 0 mm 3 mps 690 mmHg 21%
11:00 +32°C° 0 mm 4 mps 690 mmHg 19%
12:00 +33°C° 0 mm 4 mps 690 mmHg 19%
13:00 +33°C° 0 mm 4 mps 690 mmHg 18%
14:00 +34°C° 0 mm 5 mps 690 mmHg 17%
15:00 +34°C° 0 mm 4 mps 690 mmHg 16%
16:00 +34°C° 0 mm 4 mps 690 mmHg 16%
17:00 +34°C° 0 mm 4 mps 690 mmHg 15%
18:00 +31°C° 0 mm 3 mps 690 mmHg 19%
19:00 +29°C° 0 mm 2 mps 690 mmHg 22%
20:00 +26°C° 0 mm 1 mps 690 mmHg 25%
21:00 +25°C° 0 mm 2 mps 690 mmHg 27%
22:00 +25°C° 0 mm 2 mps 690 mmHg 29%
23:00 +24°C° 0 mm 2 mps 690 mmHg 32%

Tomorrow, 7 July, Tuesday

Time Temperature Precipitation Wind Pressure Humidity
00:00 +23°C° 0 mm 2 mps 690 mmHg 33%
01:00 +23°C° 0 mm 2 mps 690 mmHg 34%
02:00 +21°C° 0 mm 2 mps 689 mmHg 35%
03:00 +21°C° 0 mm 2 mps 689 mmHg 35%
04:00 +21°C° 0 mm 2 mps 689 mmHg 34%
05:00 +20°C° 0 mm 2 mps 689 mmHg 34%
06:00 +24°C° 0 mm 2 mps 690 mmHg 30%
07:00 +26°C° 0 mm 2 mps 690 mmHg 26%
08:00 +29°C° 0 mm 1 mps 691 mmHg 22%
09:00 +31°C° 0 mm 2 mps 691 mmHg 20%
10:00 +32°C° 0 mm 2 mps 691 mmHg 18%
11:00 +35°C° 0 mm 2 mps 691 mmHg 16%
12:00 +36°C° 0 mm 2 mps 691 mmHg 15%
13:00 +37°C° 0 mm 2 mps 690 mmHg 14%
14:00 +38°C° 0 mm 2 mps 690 mmHg 13%
15:00 +38°C° 0 mm 2 mps 690 mmHg 12%
16:00 +38°C° 0 mm 2 mps 691 mmHg 12%
17:00 +38°C° 0 mm 2 mps 691 mmHg 12%
18:00 +36°C° 0 mm 2 mps 690 mmHg 14%
19:00 +32°C° 0 mm 1 mps 690 mmHg 17%
20:00 +27°C° 0 mm 0 mps 690 mmHg 19%
21:00 +28°C° 0 mm 1 mps 690 mmHg 20%
22:00 +28°C° 0 mm 2 mps 690 mmHg 22%
23:00 +27°C° 0 mm 2 mps 690 mmHg 23%

Day after tomorrow, 8 July, Wednesday

Time Temperature Precipitation Wind Pressure Humidity
00:00 +26°C° 0 mm 2 mps 690 mmHg 24%
01:00 +26°C° 0 mm 2 mps 689 mmHg 25%
02:00 +25°C° 0 mm 2 mps 689 mmHg 25%
03:00 +25°C° 0 mm 2 mps 689 mmHg 26%
04:00 +25°C° 0 mm 2 mps 689 mmHg 26%
05:00 +25°C° 0 mm 2 mps 689 mmHg 27%
06:00 +27°C° 0 mm 2 mps 690 mmHg 25%
07:00 +29°C° 0 mm 1 mps 690 mmHg 22%
08:00 +31°C° 0 mm 1 mps 690 mmHg 20%
09:00 +34°C° 0 mm 2 mps 690 mmHg 18%
10:00 +36°C° 0 mm 2 mps 691 mmHg 17%
11:00 +37°C° 0 mm 2 mps 691 mmHg 15%
12:00 +38°C° 0 mm 2 mps 690 mmHg 14%
13:00 +39°C° 0 mm 3 mps 690 mmHg 13%
14:00 +40°C° 0 mm 3 mps 690 mmHg 12%
15:00 +41°C° 0 mm 4 mps 690 mmHg 13%
16:00 +40°C° 0 mm 4 mps 690 mmHg 14%
17:00 +40°C° 0 mm 5 mps 691 mmHg 14%
18:00 +37°C° 0 mm 5 mps 691 mmHg 18%
19:00 +34°C° 0 mm 6 mps 691 mmHg 21%
20:00 +32°C° 0 mm 6 mps 691 mmHg 25%
21:00 +30°C° 0 mm 5 mps 691 mmHg 26%
22:00 +29°C° 0 mm 3 mps 690 mmHg 28%
23:00 +28°C° 0 mm 2 mps 690 mmHg 30%

9 July, Thursday

Time Temperature Precipitation Wind Pressure Humidity
00:00 +28°C° 0 mm 2 mps 690 mmHg 30%
01:00 +27°C° 0 mm 2 mps 689 mmHg 30%
02:00 +27°C° 0 mm 2 mps 689 mmHg 30%
03:00 +27°C° 0 mm 2 mps 689 mmHg 31%
04:00 +26°C° 0 mm 1 mps 689 mmHg 33%
05:00 +26°C° 0 mm 1 mps 689 mmHg 34%
06:00 +27°C° 0 mm 2 mps 689 mmHg 33%
07:00 +29°C° 0 mm 2 mps 689 mmHg 31%
08:00 +30°C° 0 mm 2 mps 690 mmHg 30%
09:00 +31°C° 0.1 mm 3 mps 690 mmHg 30%
10:00 +31°C° 0.1 mm 3 mps 690 mmHg 29%
11:00 +33°C° 0.1 mm 4 mps 690 mmHg 29%
12:00 +34°C° 0 mm 3 mps 689 mmHg 25%
13:00 +35°C° 0 mm 2 mps 689 mmHg 22%
14:00 +36°C° 0 mm 1 mps 689 mmHg 18%
15:00 +36°C° 0 mm 2 mps 689 mmHg 19%
16:00 +36°C° 0 mm 4 mps 689 mmHg 19%
17:00 +36°C° 0 mm 5 mps 689 mmHg 20%
18:00 +33°C° 0.1 mm 4 mps 689 mmHg 28%
19:00 +29°C° 0.1 mm 2 mps 689 mmHg 35%
20:00 +25°C° 0.1 mm 1 mps 689 mmHg 43%
21:00 +25°C° 0.3 mm 1 mps 689 mmHg 45%
22:00 +25°C° 0.3 mm 2 mps 689 mmHg 48%
23:00 +24°C° 0.3 mm 2 mps 689 mmHg 50%

10 July, Friday

Time Temperature Precipitation Wind Pressure Humidity
00:00 +24°C° 0 mm 2 mps 689 mmHg 52%
01:00 +23°C° 0 mm 2 mps 689 mmHg 53%
02:00 +23°C° 0 mm 1 mps 688 mmHg 55%
03:00 +23°C° 0.1 mm 2 mps 688 mmHg 56%
04:00 +23°C° 0.1 mm 2 mps 688 mmHg 56%
05:00 +21°C° 0.1 mm 2 mps 688 mmHg 57%
06:00 +24°C° 0.1 mm 2 mps 688 mmHg 53%
07:00 +25°C° 0.1 mm 2 mps 688 mmHg 49%
08:00 +26°C° 0.1 mm 1 mps 688 mmHg 45%
09:00 +28°C° 0.1 mm 1 mps 688 mmHg 38%
10:00 +30°C° 0.1 mm 1 mps 688 mmHg 31%
11:00 +32°C° 0.1 mm 2 mps 688 mmHg 24%
12:00 +33°C° 0 mm 3 mps 688 mmHg 24%
13:00 +33°C° 0 mm 4 mps 688 mmHg 24%
14:00 +34°C° 0 mm 5 mps 687 mmHg 24%
15:00 +33°C° 0 mm 5 mps 687 mmHg 26%
16:00 +32°C° 0 mm 5 mps 687 mmHg 28%
17:00 +30°C° 0 mm 5 mps 687 mmHg 29%
18:00 +29°C° 0.1 mm 3 mps 687 mmHg 33%
19:00 +27°C° 0.1 mm 2 mps 688 mmHg 37%
20:00 +26°C° 0.1 mm 1 mps 688 mmHg 41%
21:00 +25°C° 0 mm 1 mps 688 mmHg 42%
22:00 +24°C° 0 mm 1 mps 688 mmHg 44%
23:00 +24°C° 0 mm 2 mps 688 mmHg 46%

11 July, Saturday

Time Temperature Precipitation Wind Pressure Humidity
00:00 +23°C° 0 mm 2 mps 688 mmHg 47%
01:00 +23°C° 0 mm 2 mps 687 mmHg 48%
02:00 +23°C° 0 mm 2 mps 687 mmHg 49%
03:00 +21°C° 0 mm 2 mps 687 mmHg 50%
04:00 +22°C° 0 mm 1 mps 687 mmHg 52%
05:00 +21°C° 0 mm 1 mps 687 mmHg 53%
06:00 +23°C° 0.1 mm 1 mps 687 mmHg 48%
07:00 +25°C° 0.1 mm 1 mps 688 mmHg 43%
08:00 +27°C° 0.1 mm 1 mps 688 mmHg 38%
09:00 +28°C° 0.1 mm 2 mps 688 mmHg 35%
10:00 +30°C° 0.1 mm 2 mps 688 mmHg 31%
11:00 +31°C° 0.1 mm 3 mps 688 mmHg 28%
12:00 +33°C° 0 mm 3 mps 688 mmHg 27%
13:00 +33°C° 0 mm 3 mps 688 mmHg 25%
14:00 +34°C° 0 mm 3 mps 688 mmHg 23%
15:00 +34°C° 0 mm 3 mps 688 mmHg 24%
16:00 +34°C° 0 mm 3 mps 688 mmHg 24%
17:00 +33°C° 0 mm 4 mps 688 mmHg 24%
18:00 +31°C° 0 mm 3 mps 689 mmHg 27%
19:00 +30°C° 0 mm 3 mps 689 mmHg 29%
20:00 +28°C° 0 mm 3 mps 689 mmHg 31%
21:00 +27°C° 0 mm 3 mps 689 mmHg 33%
22:00 +26°C° 0 mm 2 mps 689 mmHg 34%
23:00 +25°C° 0 mm 2 mps 689 mmHg 36%
Show more